Location: Banios
(43.0451°N, 0.2335°E)
Time: 13:11:55
(UTC+00:00)

Vanguard 3 - All Passes

Search period start: 13 May 2021 00:00
Search period end: 23 May 2021 00:00
Orbit: 508 x 3262 km, 33.3° (Epoch: 12 May)

Date Brightness Start Highest point End Pass type
(mag) Time Alt. Az. Time Alt. Az. Time Alt. Az.
13 May - 15:28:41 10° SSW 15:43:58 31° SE 15:58:39 10° E daylight
13 May - 17:39:58 10° SW 17:58:46 52° SSE 18:13:39 10° E daylight
13 May - 19:55:29 10° WSW 20:13:58 59° S 20:26:01 10° ESE visible
13 May - 22:12:57 10° W 22:27:28 42° SSW 22:36:23 10° SE visible
14 May - 00:32:57 10° WSW 00:38:12 14° SW 00:42:24 10° SSW visible
14 May - 14:16:36 10° S 14:28:19 20° SE 14:40:28 10° E daylight
14 May - 16:24:38 10° SW 16:42:16 44° SSE 16:58:13 10° E daylight
14 May - 18:38:23 10° WSW 18:57:40 59° S 19:11:46 10° E daylight
14 May - 20:55:05 10° W 21:12:24 53° SSW 21:23:17 10° SE visible
14 May - 23:13:21 10° W 23:24:36 27° SW 23:32:06 10° SSE visible
15 May - 13:10:47 10° SE 13:13:16 10° SE 13:15:47 10° ESE daylight
15 May - 15:10:35 10° SSW 15:26:04 34° SE 15:41:46 10° E daylight
15 May - 17:22:06 10° SW 17:41:01 55° SSE 17:56:53 10° E daylight
15 May - 19:37:32 10° WSW 19:56:31 60° S 20:09:30 10° ESE visible
15 May - 21:55:00 10° W 22:10:15 41° SSW 22:19:55 10° SE visible
16 May - 00:15:50 10° WSW 00:21:03 13° SW 00:25:20 10° SSW visible
16 May - 13:58:12 10° S 14:10:26 23° SE 14:23:45 10° E daylight
16 May - 16:06:50 10° SW 16:24:22 47° SSE 16:41:16 10° E daylight
16 May - 18:20:33 10° WSW 18:40:01 61° S 18:55:05 10° ESE daylight
16 May - 20:37:07 10° W 20:55:01 53° SSW 21:06:47 10° SE visible
16 May - 22:55:37 10° W 23:07:21 26° SW 23:15:26 10° S visible
17 May - 12:49:33 10° SSE 12:55:29 12° SE 13:01:48 10° ESE daylight
17 May - 14:52:45 10° SSW 15:08:07 37° SE 15:24:41 10° E daylight
17 May - 17:04:24 10° WSW 17:23:12 57° SSE 17:39:59 10° E daylight
17 May - 19:19:40 10° W 19:38:58 60° S 19:52:53 10° ESE visible
17 May - 21:37:05 10° W 21:52:53 40° SSW 22:03:19 10° SSE visible
17 May - 23:58:53 10° WSW 00:03:48 13° SW 00:07:57 10° SSW visible
18 May - 13:40:11 10° S 13:52:32 26° SE 14:06:43 10° E daylight
18 May - 15:49:14 10° SW 16:06:28 50° SSE 16:24:09 10° E daylight
18 May - 18:02:52 10° WSW 18:22:17 62° S 18:38:17 10° ESE daylight
18 May - 20:19:13 10° W 20:37:31 52° SSW 20:50:09 10° SE visible
18 May - 22:37:54 10° W 22:49:59 25° SW 22:58:36 10° S visible
19 May - 12:30:26 10° SSE 12:37:41 14° SE 12:45:50 10° ESE daylight
19 May - 14:35:11 10° SSW 14:50:12 40° SSE 15:07:25 10° E daylight
19 May - 16:46:53 10° WSW 17:05:21 59° SSE 17:22:58 10° E daylight
19 May - 19:01:55 10° W 19:21:18 60° S 19:36:08 10° ESE daylight
19 May - 21:19:13 10° W 21:35:23 38° SW 21:46:35 10° SSE visible
19 May - 23:42:14 10° WSW 23:46:25 12° SW 23:50:07 10° SW visible
20 May - 13:22:29 10° S 13:34:40 28° SE 13:49:27 10° E daylight
20 May - 15:31:50 10° SW 15:48:33 52° SSE 16:06:54 10° E daylight
20 May - 17:45:19 10° WSW 18:04:30 63° S 18:21:21 10° ESE daylight
20 May - 20:01:24 10° W 20:19:53 50° SSW 20:33:23 10° SE visible
20 May - 22:20:16 10° W 22:32:29 24° SW 22:41:34 10° S visible
21 May - 12:12:04 10° SSE 12:19:56 16° SE 12:29:10 10° E daylight
21 May - 14:17:51 10° SSW 14:32:18 42° SSE 14:49:58 10° E daylight
21 May - 16:29:32 10° WSW 16:47:28 61° S 17:05:49 10° E daylight
21 May - 18:44:18 10° W 19:03:33 59° SSW 19:19:16 10° ESE daylight
21 May - 21:01:25 10° W 21:17:46 37° SW 21:29:41 10° SSE visible
21 May - 23:26:20 10° WSW 23:28:56 11° SW 23:31:22 10° SW visible
22 May - 13:05:04 10° SSW 13:16:51 30° SE 13:31:58 10° E daylight
22 May - 15:14:38 10° SW 15:30:40 54° SSE 15:49:29 10° E daylight
22 May - 17:27:55 10° WSW 17:46:40 63° S 18:04:17 10° ESE daylight
22 May - 19:43:42 10° W 20:02:08 49° SSW 20:16:28 10° SE visible
22 May - 22:02:44 10° W 22:14:52 22° SW 22:24:19 10° S visible
